Retour au catalogue

COSMOS 1035

ActifMilitaireLEO
NORAD 11044·PAYLOAD·🇷🇺 Russia

Lancé Oct 4, 1978 depuis Plesetsk Cosmodrome

Loading…

Prochains Passages (prochaines 24 heures)

TLE

FraisSource: Space-Track

Époque: Sep 14, 2026, 16:01 UTC

1 11044U 78091B   26257.66778080 -.00000002  00000-0  82872-4 0  9993
2 11044  74.0385 330.6890 0048424 126.5619  27.1513 12.55707606197858

Suivez COSMOS 1035 en temps réel avec AllMySat

Download on the App Store